Location: Fort Wayne
(41.1310°N, 85.1290°W)
Time: 23:19:19
(UTC-04:00)

Meteor 2-10 Rocket - Visible Passes

Search period start: 23 April 2014 00:00
Search period end: 03 May 2014 00:00
Orbit: 734 x 886 km, 81.2° (Epoch: 23 April)

Date Brightness Start Highest point End Pass type
(mag) Time Alt. Az. Time Alt. Az. Time Alt. Az.
23 Apr 4.7 00:26:02 41° N 00:26:02 41° N 00:29:28 10° N visible
23 Apr 6.2 02:07:10 12° WNW 02:07:10 12° WNW 02:08:42 10° NW visible
24 Apr 4.6 00:01:51 40° NNE 00:01:51 40° NNE 00:05:19 10° NNE visible
24 Apr 5.9 01:42:58 16° WNW 01:42:58 16° WNW 01:45:49 10° NNW visible
24 Apr 4.6 23:37:38 35° NE 23:37:38 35° NE 23:41:04 10° NNE visible
25 Apr 5.6 01:18:45 22° WNW 01:18:45 22° WNW 01:22:21 10° NNW visible
25 Apr 4.8 23:13:23 29° ENE 23:13:23 29° ENE 23:16:43 10° NNE visible
26 Apr 5.2 00:54:31 30° WNW 00:54:31 30° WNW 00:58:39 10° NNW visible
26 Apr 5.0 22:49:07 22° ENE 22:49:07 22° ENE 22:52:11 10° NE visible
27 Apr 4.7 00:30:14 40° WNW 00:30:14 40° WNW 00:34:49 10° N visible
27 Apr 5.3 22:24:48 17° ENE 22:24:48 17° ENE 22:27:25 10° NE visible
28 Apr 4.1 00:05:55 57° WNW 00:05:55 57° WNW 00:10:52 10° N visible
28 Apr 5.5 22:00:27 12° E 22:00:27 12° E 22:02:01 10° ENE visible
28 Apr 3.6 23:41:34 80° WNW 23:41:34 80° WNW 23:46:50 10° N visible
29 Apr 3.4 23:17:10 72° ESE 23:17:24 73° E 23:22:42 10° NNE visible
30 Apr 6.0 00:58:17 13° W 00:59:59 14° WNW 01:02:48 10° NW visible
30 Apr 3.7 22:52:43 49° ESE 22:53:21 52° E 22:58:28 10° NNE visible
01 May 5.7 00:33:50 17° W 00:35:41 20° WNW 00:39:29 10° NNW visible
01 May 4.2 22:28:13 33° ESE 22:29:20 36° E 22:34:08 10° NNE visible
02 May 5.3 00:09:19 21° WSW 00:11:26 27° WNW 00:15:52 10° NNW visible
02 May 4.6 22:03:39 22° ESE 22:05:21 26° E 22:09:40 10° NE visible
02 May 4.8 23:44:45 24° WSW 23:47:14 37° WNW 23:52:04 10° N visible
